Tracking 19242 objects as of 16-Aug-2018
HD Live streaming from Space Station
objects crossing your sky now

NOAA 16 DEB

Track NOAA 16 DEB now!
10-day predictions


NORAD ID: 41408
Int'l Code: 2000-055KM
Perigee: 837.5 km
Apogee: 860.2 km
Inclination: 98.9 °
Period: 101.8 minutes
Semi major axis: 7219 km
RCS: Unknown
Launch date: September 21, 2000
Source: United States (US)
Launch site: AIR FORCE WESTERN TEST RANGE (AFWTR)

Note: This is SATELLITE DEBRIS
aabbcc
Your satellite tracking list
Your tracking list is empty




NASA's NSSDC Master Catalog

Two Line Element Set (TLE):
1 41408U 00055KM  18228.45680105  .00000532  00000-0  29670-3 0  9994
2 41408  98.8520 304.5190 0015777 195.4284 164.6410 14.15174215128940
Source of the keplerian elements: AFSPC